[[{"header":{"parameterUnit":"m.s-1","parameterCategory":1,"la1":30.2991,"la2":30.254,"lo1":-89.0895,"lo2":-89.0444,"dy":0.0017,"dx":0.0017,"nx":28,"ny":28,"refTime":"2026-02-09T09:00:00:Z","depth":0,"parameterNumber":2,"parameterNumberName":"U-component_of_WINDS"},"data":[0,0,0,0,0,0,0,0,0,0,0,0,0,0,0,0,0,0,0,0,0,0,0,0,0,0,0,0,0,0,0,0,0,0,0,0,0,0,0,0,0,0,0,0,0,0,0,0,0,0,0,0,0,0,0,0,0,0,0.8388,0.839,0,0.8546,0.8548,0.8549,0.8576,0.8574,0.8573,0.8572,0.8735,0.874,0.8746,0,0,0,0,0,0,0,0,0,0,0,0,0,0.8112,0.8117,0.8388,0.839,0.8392,0.8546,0.8548,0.855,0.8576,0.8574,0.8573,0.8571,0.8733,0.8739,0.8746,0,0,0,0,0,0,0,0,0,0,0,0,0,0.8247,0.8119,0.8388,0.8424,0.8428,0.8545,0.8548,0.855,0.8576,0.8574,0.8572,0.857,0.8731,0.8739,0.8747,0.884,0,0,0.8773,0.8776,0,0,0,0,0,0,0,0,0.824,0.8257,0.8416,0.8421,0.8427,0.8539,0.851,0.8647,0.8577,0.852,0.8572,0.8569,0.8671,0.8684,0.8718,0.8847,0.8854,0.8773,0.8779,0.8782,0.8785,0,0,0,0,0,0,0,0.823,0.8251,0.8451,0.8419,0.8425,0.8433,0.8449,0.8536,0.8605,0.8525,0.8527,0.8545,0.8674,0.871,0.8722,0.8857,0.8773,0.8781,0.8786,0.8789,0.9071,0.9073,0,0,0,0,0,0,0.8214,0.8243,0.8446,0.8455,0.8326,0.8439,0.8458,0.8505,0.8604,0.8618,0.8547,0.8546,0.8697,0.8713,0.8728,0.8844,0.8782,0.879,0.8795,0.9069,0.9071,0.9074,0,0,0,0,0,0,0.8208,0.8232,0.8439,0.835,0.8377,0.8446,0.8499,0.8509,0.8546,0.8621,0.8634,0.8571,0.8696,0.8716,0.8812,0.885,0.8794,0.8801,0.9066,0.9069,0.9073,0.9076,0,0,0,0,0,0,0.82,0.823,0.8265,0.835,0.8381,0.852,0.8501,0.8514,0.856,0.856,0.8647,0.866,0.8696,0.8799,0.882,0.8861,0.8808,0.9063,0.9067,0.9072,0.9073,0.908,0.9085,0,0,0,0,0,0.819,0.826,0.8267,0.8291,0.8427,0.8522,0.854,0.8579,0.8563,0.86,0.8648,0.8657,0.8842,0.8809,0.8833,0.8876,0.906,0.9066,0.9071,0.907,0.9078,0.9085,0,0,0,0,0,0,0.8178,0.8272,0.828,0.838,0.8442,0.8526,0.8573,0.8586,0.8655,0.8653,0.87,0.8719,0.8812,0.8854,0.8815,0.8972,0.895,0.8961,0.8941,0.895,0.8956,0.8944,0.8815,0,0,0,0,0,0.8186,0.8255,0.8334,0.8414,0.8445,0.8503,0.8546,0.8571,0.8639,0.8666,0.8721,0.8786,0.886,0.8907,0.8978,0.9079,0.9099,0.9121,0.9127,0.9132,0.914,0.9198,0.9209,0.9092,0.9092,0.9092,0,0,0.8205,0.8265,0.8305,0.8413,0.8464,0.8535,0.8526,0.8601,0.8654,0.8677,0.8771,0.8814,0.889,0.8989,0.9035,0.9026,0.9177,0.9139,0.9142,0.9148,0.9205,0.9216,0.9226,0.9096,0.9095,0.9095,0,0,0.8276,0.8327,0.84,0.8452,0.8531,0.857,0.8587,0.8669,0.8698,0.8793,0.8812,0.8876,0.9001,0.9055,0.9099,0.919,0.9202,0.9212,0.9244,0.93,0.9309,0.9318,0.9351,0.9363,0.9221,0.9221,0.9221,0,0.8289,0.8396,0.8436,0.8511,0.8558,0.8582,0.8657,0.8705,0.8803,0.8835,0.8824,0.8982,0.9034,0.9147,0.9169,0.9203,0.9226,0.9203,0.9304,0.9313,0.9322,0.9355,0.9367,0.9222,0.9222,0.9221,0.9221,0,0.841,0.8484,0.8533,0.8627,0.8679,0.8754,0.8806,0.8854,0.8875,0.8915,0.9012,0.9076,0.9161,0.919,0.9211,0.9306,0.9298,0.9295,0.9274,0.9333,0.9365,0.9377,0.9223,0.9222,0.9222,0.9222,0,0,0.8477,0.8592,0.861,0.8653,0.8741,0.88,0.8875,0.8958,0.9,0.9066,0.9132,0.9237,0.9235,0.9285,0.9312,0.9361,0.943,0.9352,0.9355,0.9365,0.954,0.9542,0.9556,0.9438,0.9441,0.9443,0.9534,0,0.8559,0.8694,0.8733,0.8847,0.8917,0.894,0.9007,0.9068,0.9108,0.9173,0.9218,0.9292,0.9283,0.9313,0.9362,0.9411,0.9466,0.9405,0.9501,0.9503,0.9481,0.9572,0.9575,0.9658,0.9547,0.9549,0.955,0,0.8672,0.8741,0.8862,0.8943,0.8973,0.9032,0.9112,0.9173,0.9244,0.927,0.9326,0.9349,0.943,0.9404,0.9517,0.9474,0.9516,0.9546,0.955,0.9561,0.9531,0.9587,0.9685,0.9698,0.957,0.9568,0.9567,0,0.871,0.8833,0.8922,0.8958,0.9054,0.9095,0.9136,0.9205,0.9253,0.9323,0.9355,0.9433,0.9476,0.9537,0.9581,0.9558,0.969,0.9668,0.9715,0.9714,0.9742,0.974,0.9849,0.9767,0.9767,0.9767,0.9766,0,0.8798,0.8871,0.894,0.8995,0.9078,0.9122,0.9204,0.9247,0.9308,0.9372,0.9398,0.9458,0.9512,0.9579,0.9614,0.9703,0.9722,0.9745,0.9754,0.9744,0.9741,0.9772,0.9767,0.977,0.9769,0.9769,0.9768,0,0.8854,0.8903,0.9002,0.9084,0.9107,0.9165,0.9236,0.9291,0.9331,0.9412,0.9434,0.9498,0.9579,0.9628,0.973,0.9754,0.9852,0.9858,0.9828,0.9832,0.9876,0.9872,1.001,1.0031,0.9934,0.9935,0.9936,0,0.8907,0.8964,0.9053,0.9098,0.914,0.9211,0.926,0.9306,0.9356,0.9442,0.9486,0.9568,0.9637,0.9765,0.9821,0.9899,0.9908,0.9951,0.992,0.9908,0.991,0.9906,0.9913,0.9957,0.9957,0.9958,0.9959,0,0.8996,0.9018,0.9087,0.9165,0.9223,0.9287,0.9351,0.9386,0.9443,0.9498,0.958,0.9633,0.9738,0.9819,0.9903,0.9947,0.9963,0.9968,0.9983,0.9973,0.9954,0.9966,0.9843,0.9965,0.9964,0.9964,0.9963,0.9963,0.9053,0.9106,0.9177,0.9253,0.9306,0.9365,0.9421,0.9468,0.9538,0.9626,0.9649,0.9736,0.9807,0.9921,0.9967,1.0036,1.003,1.0051,1.0057,1.0062,1.0063,0.9942,1.0051,1.0051,1.0051,1.0051,1.0051,0,0.9144,0.9191,0.9261,0.935,0.941,0.9419,0.9491,0.9541,0.9617,0.9681,0.9748,0.9843,0.9923,0.9985,1.0067,1.0111,1.012,1.0131,1.0128,1.0138,1.0063,1.0043,1.0122,1.0122,1.0122,1.0122,1.0122,1.0122,0.9199,0.9288,0.9318,0.9435,0.9481,0.9566,0.9606,0.9661,0.9713,0.9818,0.9884,0.9924,0.9989,1.0075,1.0149,1.0166,1.0195,1.0204,1.0222,1.0151,1.0143,1.0136,1.0117,1.021,1.021,1.0292,1.0292,1.0293]},{"header":{"parameterUnit":"m.s-1","parameterCategory":1,"la1":30.2991,"la2":30.254,"lo1":-89.0895,"lo2":-89.0444,"dy":0.0017,"dx":0.0017,"nx":28,"ny":28,"refTime":"2026-02-09T09:00:00:Z","depth":0,"parameterNumber":3,"parameterNumberName":"V-component_of_WINDS"},"data":[0,0,0,0,0,0,0,0,0,0,0,0,0,0,0,0,0,0,0,0,0,0,0,0,0,0,0,0,0,0,0,0,0,0,0,0,0,0,0,0,0,0,0,0,0,0,0,0,0,0,0,0,0,0,0,0,0,0,1.664,1.6641,0,1.673,1.6731,1.6732,1.6734,1.6733,1.6732,1.6731,1.6821,1.6824,1.6828,0,0,0,0,0,0,0,0,0,0,0,0,0,1.6471,1.6474,1.664,1.6641,1.6643,1.673,1.6731,1.6732,1.6735,1.6733,1.6732,1.6731,1.682,1.6824,1.6828,0,0,0,0,0,0,0,0,0,0,0,0,0,1.655,1.6475,1.664,1.6654,1.6656,1.6729,1.6731,1.6732,1.6735,1.6733,1.6732,1.673,1.6818,1.6823,1.6828,1.6893,0,0,1.6844,1.6846,0,0,0,0,0,0,0,0,1.6546,1.6557,1.6651,1.6653,1.6656,1.6719,1.6704,1.6786,1.6735,1.6705,1.6731,1.6729,1.6788,1.6796,1.6816,1.6897,1.6901,1.6844,1.6848,1.685,1.6851,0,0,0,0,0,0,0,1.654,1.6553,1.6676,1.6652,1.6655,1.6656,1.6665,1.6719,1.6755,1.6708,1.6708,1.6719,1.6789,1.6811,1.6818,1.6902,1.6844,1.6849,1.6852,1.6854,1.704,1.7042,0,0,0,0,0,0,1.6532,1.6548,1.6673,1.6678,1.6596,1.666,1.6671,1.6701,1.6754,1.6761,1.672,1.6718,1.6803,1.6812,1.6821,1.6901,1.685,1.6855,1.6857,1.7038,1.7041,1.7043,0,0,0,0,0,0,1.6529,1.6543,1.6669,1.6613,1.6629,1.6665,1.6698,1.6703,1.6725,1.6763,1.677,1.6736,1.6802,1.6814,1.6875,1.6904,1.6857,1.6861,1.7036,1.7039,1.7042,1.706,0,0,0,0,0,0,1.6524,1.6542,1.6567,1.6614,1.6632,1.6722,1.67,1.6706,1.6734,1.6733,1.678,1.6786,1.6802,1.6868,1.688,1.691,1.6865,1.7034,1.7038,1.7041,1.7057,1.7063,1.7068,0,0,0,0,0,1.6518,1.6568,1.6568,1.6583,1.6665,1.6724,1.6734,1.6752,1.6736,1.6762,1.6786,1.6785,1.6898,1.6874,1.6888,1.692,1.7032,1.7037,1.7041,1.7054,1.7061,1.7068,0,0,0,0,0,0,1.6523,1.6574,1.6575,1.6642,1.6679,1.6724,1.6757,1.6759,1.68,1.6797,1.6816,1.6827,1.6888,1.691,1.6881,1.6985,1.6963,1.6971,1.6969,1.6976,1.6982,1.6975,1.687,0,0,0,0,0,1.6532,1.6576,1.6618,1.6673,1.6692,1.6721,1.6747,1.6758,1.6796,1.6811,1.684,1.6877,1.6921,1.6949,1.6992,1.7059,1.707,1.7088,1.7094,1.7098,1.7105,1.7143,1.7152,1.7057,1.7057,1.7057,0,0,1.6551,1.6584,1.6611,1.6675,1.6705,1.675,1.6734,1.6782,1.6816,1.6818,1.6878,1.6901,1.6943,1.7007,1.7037,1.7028,1.7133,1.7104,1.7107,1.7111,1.7148,1.7157,1.7165,1.706,1.7059,1.7059,0,0,1.6608,1.6638,1.6688,1.6718,1.6763,1.6782,1.6794,1.6839,1.6854,1.6915,1.6918,1.6958,1.7033,1.7063,1.7088,1.7158,1.7158,1.7171,1.7201,1.7238,1.7245,1.7252,1.7278,1.7286,1.7177,1.7177,1.7177,0,1.6626,1.6695,1.6713,1.6762,1.679,1.6795,1.6845,1.6873,1.6929,1.6949,1.6937,1.7032,1.7061,1.7133,1.715,1.717,1.7184,1.7166,1.7243,1.725,1.7256,1.7281,1.729,1.7178,1.7178,1.7178,1.7178,0,1.6715,1.6762,1.6797,1.6852,1.6884,1.6933,1.6959,1.6989,1.6996,1.7017,1.7078,1.7113,1.7163,1.7181,1.7188,1.7254,1.7247,1.7239,1.7218,1.7266,1.729,1.7299,1.718,1.718,1.7179,1.7179,0,0,1.6779,1.6844,1.6856,1.6882,1.6932,1.6969,1.7018,1.7068,1.7094,1.7132,1.7174,1.7238,1.7231,1.7259,1.727,1.7302,1.7356,1.729,1.7292,1.7302,1.7432,1.7439,1.745,1.7356,1.7358,1.736,1.7429,0,1.6843,1.6932,1.6949,1.7026,1.7071,1.7076,1.7119,1.7154,1.7175,1.7215,1.7237,1.7282,1.7269,1.7286,1.7318,1.7343,1.7383,1.7338,1.7396,1.7398,1.7387,1.7462,1.7469,1.7533,1.7438,1.744,1.7441,0,1.693,1.6971,1.7053,1.7098,1.7117,1.7156,1.7203,1.7241,1.7281,1.7294,1.7326,1.7333,1.7385,1.736,1.7431,1.7401,1.7425,1.7441,1.7444,1.7451,1.7423,1.7472,1.7554,1.7564,1.7456,1.7454,1.7453,0,1.697,1.7046,1.7105,1.7126,1.718,1.7207,1.723,1.7269,1.7298,1.7339,1.7358,1.7404,1.7429,1.7464,1.7484,1.7464,1.7554,1.7531,1.7566,1.7565,1.7585,1.7584,1.7673,1.7599,1.7599,1.7599,1.7599,0,1.704,1.709,1.7124,1.716,1.7216,1.7236,1.7291,1.7314,1.7348,1.7389,1.7395,1.7433,1.7456,1.7497,1.7513,1.757,1.7581,1.7592,1.7596,1.7593,1.7591,1.761,1.7606,1.7601,1.7601,1.76,1.76,0,1.7094,1.7119,1.7184,1.7229,1.7242,1.7281,1.732,1.7356,1.7376,1.7427,1.744,1.7472,1.7521,1.7544,1.7604,1.7614,1.7679,1.7679,1.7666,1.7668,1.7702,1.7699,1.7807,1.7823,1.7737,1.7738,1.7739,0,1.7138,1.7177,1.7227,1.7255,1.728,1.7325,1.7355,1.7375,1.7406,1.7454,1.7484,1.7533,1.7574,1.7652,1.768,1.7726,1.7728,1.7763,1.7735,1.773,1.773,1.7728,1.7732,1.7768,1.7769,1.7769,1.777,0,1.7214,1.7224,1.7267,1.7315,1.7351,1.7389,1.7427,1.7449,1.7475,1.7509,1.756,1.7592,1.7654,1.7703,1.7751,1.7774,1.7777,1.7778,1.7789,1.7786,1.7778,1.7784,1.7681,1.7776,1.7775,1.7775,1.7775,1.7774,1.7265,1.73,1.7341,1.7389,1.742,1.7455,1.7491,1.7516,1.7558,1.7611,1.762,1.7674,1.7713,1.7778,1.7804,1.7846,1.7838,1.7853,1.7857,1.7861,1.7863,1.777,1.7854,1.7854,1.7854,1.7854,1.7854,0,1.7342,1.7369,1.7413,1.7466,1.7503,1.7503,1.7544,1.7576,1.7624,1.766,1.77,1.7759,1.7806,1.7838,1.7886,1.7914,1.7916,1.7926,1.7925,1.793,1.7867,1.7854,1.7923,1.7923,1.7923,1.7923,1.7923,1.7923,1.7386,1.7446,1.7461,1.7536,1.7562,1.7616,1.764,1.7673,1.7702,1.7767,1.7807,1.7828,1.7863,1.7913,1.7957,1.7965,1.7983,1.7993,1.8001,1.7942,1.7935,1.7928,1.7915,1.7997,1.7997,1.8061,1.8062,1.8062]}]]